• In Belarus
  • List of Countries
  • For 7 days
  • Water Temperature
  • Satellite Maps
  • Weather Map
  • Weather Widgets
  • user-avatar
    Login

    Hourly Weather Brčko

    Today, 22 September, Saturday

    Time Temperature Precipitation Wind Pressure Humidity
    00:00 +20°C° 0 mm 2 mps 753 mmHg 68%
    01:00 +19°C° 0 mm 2 mps 753 mmHg 71%
    02:00 +19°C° 0 mm 2 mps 753 mmHg 72%
    03:00 +19°C° 0 mm 2 mps 753 mmHg 74%
    04:00 +19°C° 0 mm 2 mps 753 mmHg 76%
    05:00 +19°C° 0 mm 2 mps 754 mmHg 73%
    06:00 +20°C° 0 mm 2 mps 754 mmHg 70%
    07:00 +22°C° 0 mm 3 mps 755 mmHg 64%
    08:00 +23°C° 0 mm 4 mps 755 mmHg 60%
    09:00 +25°C° 0 mm 4 mps 756 mmHg 55%
    10:00 +26°C° 0 mm 5 mps 756 mmHg 51%
    11:00 +25°C° 0 mm 5 mps 756 mmHg 48%
    12:00 +25°C° 0 mm 5 mps 757 mmHg 45%
    13:00 +23°C° 0 mm 5 mps 757 mmHg 43%
    14:00 +22°C° 0 mm 5 mps 757 mmHg 42%
    15:00 +21°C° 0 mm 5 mps 758 mmHg 41%
    16:00 +21°C° 0 mm 5 mps 758 mmHg 41%
    17:00 +19°C° 0 mm 4 mps 758 mmHg 45%
    18:00 +17°C° 0 mm 2 mps 758 mmHg 49%
    19:00 +15°C° 0 mm 1 mps 758 mmHg 53%
    20:00 +14°C° 0 mm 1 mps 758 mmHg 55%
    21:00 +14°C° 0 mm 1 mps 759 mmHg 57%
    22:00 +12°C° 0 mm 0 mps 759 mmHg 59%
    23:00 +12°C° 0 mm 0 mps 759 mmHg 60%

    Tomorrow, 23 September, Sunday

    Time Temperature Precipitation Wind Pressure Humidity
    00:00 +12°C° 0 mm 0 mps 759 mmHg 61%
    01:00 +12°C° 0 mm 0 mps 758 mmHg 62%
    02:00 +11°C° 0 mm 0 mps 758 mmHg 63%
    03:00 +11°C° 0 mm 0 mps 758 mmHg 64%
    04:00 +11°C° 0 mm 0 mps 758 mmHg 66%
    05:00 +12°C° 0 mm 0 mps 758 mmHg 62%
    06:00 +14°C° 0 mm 1 mps 758 mmHg 59%
    07:00 +15°C° 0 mm 1 mps 758 mmHg 56%
    08:00 +19°C° 0 mm 1 mps 758 mmHg 50%
    09:00 +22°C° 0 mm 1 mps 758 mmHg 45%
    10:00 +24°C° 0 mm 1 mps 757 mmHg 39%
    11:00 +26°C° 0 mm 1 mps 757 mmHg 38%
    12:00 +28°C° 0 mm 1 mps 756 mmHg 36%
    13:00 +30°C° 0 mm 1 mps 756 mmHg 35%
    14:00 +30°C° 0 mm 2 mps 755 mmHg 36%
    15:00 +30°C° 0 mm 2 mps 755 mmHg 37%
    16:00 +30°C° 0 mm 2 mps 754 mmHg 38%
    17:00 +28°C° 0 mm 2 mps 754 mmHg 44%
    18:00 +25°C° 0 mm 2 mps 753 mmHg 51%
    19:00 +23°C° 0 mm 2 mps 753 mmHg 57%
    20:00 +23°C° 0 mm 2 mps 753 mmHg 59%
    21:00 +21°C° 0 mm 2 mps 752 mmHg 61%
    22:00 +21°C° 0 mm 2 mps 752 mmHg 64%
    23:00 +21°C° 0 mm 2 mps 752 mmHg 66%

    Day after tomorrow, 24 September, Monday

    Time Temperature Precipitation Wind Pressure Humidity
    00:00 +20°C° 0 mm 2 mps 751 mmHg 68%
    01:00 +20°C° 0 mm 3 mps 751 mmHg 71%
    02:00 +20°C° 0 mm 2 mps 751 mmHg 71%
    03:00 +20°C° 0 mm 2 mps 751 mmHg 71%
    04:00 +19°C° 0 mm 2 mps 751 mmHg 70%
    05:00 +19°C° 0.6 mm 3 mps 752 mmHg 71%
    06:00 +20°C° 0.6 mm 5 mps 753 mmHg 72%
    07:00 +20°C° 0.6 mm 6 mps 754 mmHg 72%
    08:00 +17°C° 0.5 mm 5 mps 756 mmHg 74%
    09:00 +15°C° 0.5 mm 4 mps 757 mmHg 77%
    10:00 +13°C° 0.5 mm 3 mps 759 mmHg 79%
    11:00 +13°C° 0.1 mm 3 mps 760 mmHg 79%
    12:00 +13°C° 0.1 mm 3 mps 761 mmHg 79%
    13:00 +12°C° 0.1 mm 3 mps 762 mmHg 79%
    14:00 +12°C° 0 mm 3 mps 762 mmHg 78%
    15:00 +12°C° 0 mm 3 mps 761 mmHg 77%
    16:00 +12°C° 0 mm 3 mps 761 mmHg 77%
    17:00 +12°C° 0 mm 3 mps 762 mmHg 76%
    18:00 +13°C° 0 mm 2 mps 762 mmHg 76%
    19:00 +13°C° 0 mm 2 mps 762 mmHg 76%
    20:00 +12°C° 0 mm 2 mps 763 mmHg 76%
    21:00 +12°C° 0 mm 2 mps 763 mmHg 75%
    22:00 +10°C° 0 mm 2 mps 764 mmHg 75%
    23:00 +9°C° 0 mm 2 mps 764 mmHg 74%

    25 September, Tuesday

    Time Temperature Precipitation Wind Pressure Humidity
    00:00 +8°C° 0 mm 2 mps 765 mmHg 74%
    01:00 +8°C° 0 mm 2 mps 765 mmHg 74%
    02:00 +7°C° 0 mm 2 mps 765 mmHg 74%
    03:00 +7°C° 0 mm 2 mps 765 mmHg 74%
    04:00 +6°C° 0 mm 2 mps 765 mmHg 75%
    05:00 +7°C° 0 mm 2 mps 766 mmHg 71%
    06:00 +8°C° 0 mm 2 mps 766 mmHg 68%
    07:00 +8°C° 0 mm 2 mps 767 mmHg 65%
    08:00 +10°C° 0 mm 3 mps 767 mmHg 55%
    09:00 +12°C° 0 mm 3 mps 767 mmHg 44%
    10:00 +14°C° 0 mm 4 mps 767 mmHg 34%
    11:00 +15°C° 0 mm 4 mps 766 mmHg 31%
    12:00 +17°C° 0 mm 4 mps 766 mmHg 28%
    13:00 +18°C° 0 mm 4 mps 766 mmHg 26%
    14:00 +17°C° 0 mm 4 mps 766 mmHg 26%
    15:00 +17°C° 0 mm 4 mps 766 mmHg 26%
    16:00 +17°C° 0 mm 4 mps 765 mmHg 27%
    17:00 +14°C° 0 mm 3 mps 766 mmHg 32%
    18:00 +12°C° 0 mm 2 mps 767 mmHg 37%
    19:00 +10°C° 0 mm 1 mps 767 mmHg 42%
    20:00 +10°C° 0 mm 1 mps 768 mmHg 45%
    21:00 +9°C° 0 mm 1 mps 768 mmHg 47%
    22:00 +8°C° 0 mm 1 mps 768 mmHg 50%
    23:00 +8°C° 0 mm 1 mps 768 mmHg 52%

    26 September, Wednesday

    Time Temperature Precipitation Wind Pressure Humidity
    00:00 +7°C° 0 mm 1 mps 769 mmHg 54%
    01:00 +7°C° 0 mm 1 mps 769 mmHg 57%
    02:00 +6°C° 0 mm 1 mps 769 mmHg 58%
    03:00 +6°C° 0 mm 1 mps 769 mmHg 60%
    04:00 +6°C° 0 mm 1 mps 769 mmHg 61%
    05:00 +7°C° 0 mm 1 mps 769 mmHg 58%
    06:00 +8°C° 0 mm 1 mps 769 mmHg 54%
    07:00 +8°C° 0 mm 1 mps 770 mmHg 51%
    08:00 +11°C° 0 mm 1 mps 770 mmHg 44%
    09:00 +13°C° 0 mm 2 mps 770 mmHg 38%
    10:00 +16°C° 0 mm 3 mps 770 mmHg 32%
    11:00 +17°C° 0 mm 3 mps 769 mmHg 30%
    12:00 +18°C° 0 mm 3 mps 768 mmHg 27%
    13:00 +19°C° 0 mm 3 mps 768 mmHg 25%
    14:00 +19°C° 0 mm 2 mps 767 mmHg 25%
    15:00 +18°C° 0 mm 2 mps 767 mmHg 25%
    16:00 +18°C° 0 mm 2 mps 766 mmHg 26%
    17:00 +16°C° 0 mm 2 mps 767 mmHg 30%
    18:00 +14°C° 0 mm 2 mps 767 mmHg 35%
    19:00 +11°C° 0 mm 1 mps 767 mmHg 39%
    20:00 +11°C° 0 mm 1 mps 767 mmHg 41%
    21:00 +10°C° 0 mm 1 mps 767 mmHg 42%
    22:00 +9°C° 0 mm 1 mps 767 mmHg 44%
    23:00 +9°C° 0 mm 1 mps 767 mmHg 45%

    27 September, Thursday

    Time Temperature Precipitation Wind Pressure Humidity
    00:00 +8°C° 0 mm 1 mps 767 mmHg 46%
    01:00 +8°C° 0 mm 1 mps 766 mmHg 48%
    02:00 +8°C° 0 mm 1 mps 766 mmHg 49%
    03:00 +7°C° 0 mm 1 mps 766 mmHg 50%
    04:00 +7°C° 0 mm 1 mps 765 mmHg 51%
    05:00 +8°C° 0 mm 1 mps 765 mmHg 48%
    06:00 +9°C° 0 mm 1 mps 765 mmHg 46%
    07:00 +10°C° 0 mm 1 mps 765 mmHg 43%
    08:00 +13°C° 0 mm 1 mps 764 mmHg 37%
    09:00 +16°C° 0 mm 1 mps 764 mmHg 30%
    10:00 +20°C° 0 mm 1 mps 764 mmHg 24%
    11:00 +21°C° 0 mm 1 mps 763 mmHg 22%
    12:00 +23°C° 0 mm 2 mps 763 mmHg 19%
    13:00 +24°C° 0 mm 2 mps 762 mmHg 17%
    14:00 +24°C° 0 mm 1 mps 761 mmHg 18%
    15:00 +24°C° 0 mm 1 mps 761 mmHg 18%
    16:00 +23°C° 0 mm 1 mps 760 mmHg 19%
    17:00 +21°C° 0 mm 1 mps 760 mmHg 23%
    18:00 +18°C° 0 mm 1 mps 760 mmHg 27%
    19:00 +14°C° 0 mm 1 mps 760 mmHg 30%
    20:00 +13°C° 0 mm 1 mps 760 mmHg 32%
    21:00 +12°C° 0 mm 1 mps 760 mmHg 33%
    22:00 +12°C° 0 mm 1 mps 760 mmHg 35%
    23:00 +11°C° 0 mm 1 mps 760 mmHg 36%
    Show more